Temp
-11 -10 -11 -12 -12 -12 -11 -10 -10 -10 -11 -10 -9 -8 -8 -9 -9 -10 -10 -10 -10 -10 -10 -11 -11 -11 -11 -11 -10 -10 -10 -11 -11 -10 -10 -10 -10 -10 -10 -11 -11 -10 -10 -10
-11 -10 -12 -12 -12 -12 -11 -11 -10 -10 -11 -10 -9 -8 -9 -9 -9 -9 -9 -10 -10 -10 -10 -10 -11 -11 -11 -11 -11 -11 -11 -11 -11 -11 -10 -10 -10 -10 -10 -10 -11 -10 -10 -10
-11 -11 -11 -12 -12 -12 -12 -12 -11 -10 -10 -10 -9 -7 -8 -9 -9 -9 -10 -10 -10 -9 -10 -10 -10 -10 -11 -11 -11 -11 -11 -11 -11 -11 -10 -10 -10 -10 -10 -10 -11 -10 -10 -10
-11 -12 -12 -12 -12 -13 -12 -13 -12 -11 -11 -10 -9 -6 -7 -8 -9 -9 -9 -9 -10 -10 -10 -10 -11 -11 -11 -11 -11 -11 -11 -10 -10 -10 -11 -10 -10 -10 -10 -10 -10 -10 -10 -11
-13 -13 -13 -12 -13 -13 -12 -13 -13 -12 -12 -11 -10 -10 -8 -8 -9 -9 -10 -10 -10 -11 -11 -11 -11 -11 -12 -11 -11 -11 -12 -11 -11 -11 -11 -11 -11 -10 -10 -10 -11 -11 -11 -11
-13 -13 -13 -13 -13 -13 -13 -13 -13 -13 -12 -11 -11 -11 -7 -9 -9 -10 -10 -10 -10 -10 -10 -10 -10 -11 -11 -11 -11 -11 -12 -12 -12 -11 -11 -11 -11 -11 -11 -11 -11 -11 -11 -11
-14 -13 -13 -13 -13 -14 -14 -14 -14 -13 -13 -12 -12 -11 -9 -10 -10 -10 -11 -11 -11 -12 -12 -12 -11 -11 -11 -11 -10 -11 -11 -11 -11 -12 -11 -11 -11 -11 -11 -11 -11 -12 -11 -12
-14 -13 -13 -14 -15 -15 -15 -15 -15 -15 -14 -13 -13 -11 -9 -10 -10 -11 -12 -12 -12 -13 -14 -14 -13 -13 -11 -11 -11 -11 -11 -11 -11 -11 -12 -12 -11 -11 -11 -11 -11 -12 -13 -13
-15 -13 -13 -14 -15 -14 -15 -16 -16 -16 -16 -16 -13 -12 -11 -11 -11 -12 -13 -14 -14 -15 -14 -14 -14 -14 -14 -13 -13 -14 -14 -12 -11 -12 -12 -12 -12 -12 -13 -13 -13 -14 -13 -14
-16 -15 -14 -15 -15 -15 -16 -16 -16 -17 -18 -17 -15 -14 -12 -11 -12 -14 -14 -15 -16 -16 -16 -16 -16 -15 -15 -14 -15 -15 -14 -14 -14 -13 -13 -12 -13 -13 -14 -15 -15 -15 -15 -14
-17 -17 -15 -15 -14 -16 -17 -17 -17 -18 -19 -18 -18 -17 -14 -14 -14 -14 -15 -16 -16 -15 -15 -15 -17 -16 -15 -16 -16 -16 -16 -15 -14 -14 -14 -13 -12 -12 -13 -14 -15 -16 -16 -15
-18 -19 -19 -17 -17 -17 -18 -18 -18 -19 -19 -19 -20 -19 -17 -16 -16 -16 -18 -17 -16 -16 -15 -16 -16 -17 -16 -16 -16 -16 -17 -16 -15 -15 -15 -15 -14 -13 -13 -13 -15 -16 -16 -16
-19 -20 -20 -20 -19 -18 -19 -19 -20 -19 -19 -20 -20 -19 -19 -19 -18 -17 -17 -16 -16 -16 -15 -15 -16 -17 -18 -17 -17 -17 -16 -17 -17 -17 -16 -16 -15 -14 -15 -15 -16 -15 -15 -17
-20 -21 -21 -21 -20 -20 -20 -20 -21 -21 -20 -20 -20 -20 -20 -20 -20 -19 -18 -18 -18 -18 -17 -16 -16 -16 -17 -18 -18 -17 -17 -17 -17 -17 -17 -17 -16 -16 -16 -16 -16 -16 -16 -15
-21 -21 -21 -21 -21 -22 -22 -21 -21 -20 -21 -22 -22 -22 -22 -21 -21 -21 -21 -20 -19 -19 -19 -18 -18 -17 -16 -16 -17 -17 -18 -18 -17 -17 -16 -17 -17 -17 -17 -16 -17 -17 -17 -16
-22 -22 -22 -22 -22 -23 -23 -23 -22 -21 -22 -22 -22 -22 -22 -22 -22 -22 -21 -21 -21 -20 -20 -19 -19 -19 -19 -19 -19 -19 -19 -19 -19 -19 -19 -18 -18 -17 -17 -17 -17 -16 -16 -16
-23 -23 -23 -23 -23 -24 -24 -22 -23 -23 -23 -23 -23 -23 -23 -23 -23 -23 -22 -22 -22 -21 -22 -20 -20 -20 -20 -20 -19 -19 -19 -19 -19 -19 -19 -19 -19 -19 -18 -18 -18 -17 -17 -17
-23 -24 -24 -24 -24 -24 -23 -23 -23 -23 -24 -24 -24 -24 -24 -24 -24 -24 -24 -23 -23 -22 -22 -21 -21 -20 -20 -20 -20 -20 -19 -19 -19 -19 -20 -19 -20 -19 -19 -18 -19 -18 -18 -18
-25 -25 -25 -25 -25 -25 -25 -25 -25 -26 -25 -26 -26 -26 -26 -26 -26 -26 -26 -25 -25 -24 -24 -22 -22 -22 -22 -22 -21 -21 -20 -20 -19 -20 -20 -21 -21 -20 -20 -19 -19 -19 -18 -18
-26 -26 -26 -26 -26 -26 -26 -26 -26 -26 -26 -26 -27 -27 -27 -27 -27 -27 -27 -27 -27 -26 -26 -24 -24 -22 -22 -22 -22 -22 -21 -21 -21 -21 -20 -20 -20 -19 -19 -20 -20 -20 -19 -19
-27 -27 -28 -27 -28 -27 -27 -27 -27 -28 -28 -28 -28 -28 -28 -28 -28 -28 -28 -28 -28 -27 -27 -27 -27 -26 -25 -25 -24 -24 -23 -22 -23 -23 -21 -21 -22 -21 -21 -21 -21 -21 -21 -21
-28 -28 -28 -28 -29 -29 -29 -29 -29 -29 -29 -29 -28 -29 -29 -29 -28 -29 -29 -28 -28 -28 -28 -28 -28 -27 -27 -27 -27 -26 -26 -25 -24 -24 -23 -22 -22 -23 -22 -22 -22 -22 -22 -23
-30 -29 -30 -30 -29 -29 -29 -30 -30 -30 -30 -29 -29 -29 -30 -29 -29 -29 -29 -29 -29 -29 -28 -28 -28 -28 -27 -27 -28 -27 -27 -26 -25 -25 -24 -24 -23 -23 -23 -23 -23 -22 -22 -22
-30 -30 -30 -30 -29 -30 -30 -31 -31 -31 -31 -30 -30 -30 -30 -31 -31 -31 -30 -30 -30 -30 -30 -30 -30 -29 -28 -28 -28 -28 -27 -27 -26 -25 -24 -25 -24 -24 -24 -25 -24 -24 -24 -22
-30 -30 -30 -31 -30 -31 -31 -31 -32 -32 -31 -32 -32 -32 -32 -33 -33 -33 -32 -32 -32 -32 -32 -32 -32 -31 -30 -30 -29 -29 -28 -28 -27 -26 -25 -25 -25 -25 -25 -25 -25 -25 -24 -24
-31 -31 -32 -31 -31 -33 -32 -31 -33 -33 -34 -34 -34 -34 -35 -35 -35 -35 -34 -34 -34 -34 -34 -34 -33 -33 -33 -32 -31 -31 -30 -29 -28 -27 -26 -26 -25 -25 -25 -25 -25 -25 -25 -24
Height
5796 5792 5793 5798 5791 5788 5785 5781 5780 5784 5787 5777 5777 5771 5775 5781 5781 5785 5783 5780 5780 5779 5777 5776 5772 5770 5767 5765 5767 5767 5768 5769 5768 5768 5768 5767 5769 5768 5769 5769 5770 5769 5770 5770
5787 5781 5788 5783 5781 5778 5776 5774 5771 5770 5772 5768 5764 5758 5765 5772 5774 5772 5773 5771 5768 5769 5767 5765 5761 5759 5755 5755 5757 5758 5759 5758 5758 5758 5759 5759 5759 5760 5759 5760 5760 5760 5760 5760
5775 5773 5775 5773 5771 5771 5770 5765 5764 5758 5759 5758 5752 5744 5751 5764 5766 5763 5762 5762 5760 5758 5756 5755 5753 5751 5749 5749 5747 5747 5748 5748 5748 5748 5750 5750 5750 5750 5749 5750 5749 5748 5748 5750
5761 5766 5764 5760 5759 5759 5753 5759 5753 5751 5749 5743 5744 5728 5739 5747 5754 5754 5753 5750 5750 5748 5749 5747 5745 5744 5742 5741 5741 5740 5738 5737 5738 5738 5739 5739 5739 5738 5739 5737 5735 5736 5737 5739
5753 5752 5752 5750 5750 5744 5747 5743 5742 5741 5738 5735 5729 5733 5732 5731 5730 5735 5740 5743 5742 5739 5741 5737 5737 5736 5732 5730 5731 5729 5728 5727 5726 5726 5728 5728 5729 5729 5727 5725 5724 5724 5725 5727
5740 5739 5736 5736 5736 5734 5732 5730 5728 5725 5725 5722 5725 5726 5723 5724 5721 5719 5720 5719 5722 5722 5719 5718 5720 5724 5725 5721 5719 5718 5718 5716 5715 5715 5714 5715 5716 5716 5715 5712 5713 5714 5713 5714
5723 5723 5723 5722 5720 5721 5718 5716 5711 5708 5708 5713 5711 5710 5712 5713 5719 5715 5713 5711 5705 5700 5697 5699 5702 5699 5700 5706 5706 5705 5704 5704 5703 5701 5700 5700 5700 5702 5702 5703 5701 5701 5701 5701
5705 5709 5710 5710 5709 5706 5704 5703 5698 5690 5694 5694 5693 5691 5703 5705 5706 5705 5702 5697 5691 5685 5682 5682 5680 5678 5680 5682 5684 5690 5692 5690 5691 5691 5690 5688 5686 5685 5685 5687 5688 5688 5687 5688
5685 5692 5693 5693 5691 5690 5688 5683 5686 5674 5674 5670 5677 5681 5690 5694 5694 5692 5686 5681 5674 5673 5671 5666 5661 5663 5663 5665 5665 5666 5669 5672 5673 5672 5671 5671 5671 5670 5669 5670 5670 5671 5673 5674
5665 5664 5677 5675 5675 5671 5666 5666 5663 5660 5649 5646 5652 5659 5666 5685 5681 5672 5668 5665 5661 5656 5655 5650 5647 5647 5647 5646 5645 5643 5645 5648 5650 5651 5652 5653 5652 5652 5654 5656 5657 5657 5657 5658
5648 5644 5658 5651 5656 5657 5652 5645 5643 5642 5637 5626 5625 5631 5660 5656 5658 5654 5646 5637 5636 5637 5639 5637 5633 5634 5635 5634 5634 5633 5633 5636 5634 5632 5632 5635 5635 5637 5638 5639 5641 5641 5641 5642
5635 5626 5623 5636 5641 5635 5631 5628 5627 5622 5618 5614 5606 5601 5634 5636 5635 5635 5612 5611 5613 5617 5618 5619 5618 5616 5619 5618 5618 5614 5615 5616 5618 5617 5619 5620 5621 5621 5621 5622 5620 5621 5622 5622
5617 5611 5608 5608 5621 5619 5614 5616 5610 5606 5599 5593 5587 5585 5611 5609 5610 5601 5600 5596 5596 5595 5595 5599 5599 5598 5596 5597 5600 5600 5600 5597 5599 5598 5601 5603 5605 5606 5607 5606 5604 5603 5602 5602
5601 5599 5597 5590 5596 5601 5592 5594 5592 5591 5581 5576 5572 5568 5580 5582 5578 5581 5579 5577 5576 5578 5579 5580 5580 5577 5579 5580 5576 5578 5581 5580 5580 5580 5580 5584 5588 5588 5588 5588 5589 5587 5585 5586
5585 5578 5580 5578 5576 5574 5573 5572 5574 5573 5567 5556 5558 5552 5548 5556 5560 5557 5556 5558 5555 5553 5554 5554 5556 5555 5553 5553 5555 5556 5556 5557 5558 5559 5560 5561 5564 5564 5566 5565 5566 5567 5566 5567
5566 5560 5558 5556 5564 5554 5547 5552 5558 5554 5551 5541 5536 5534 5533 5533 5537 5536 5536 5535 5533 5532 5532 5532 5532 5533 5529 5526 5525 5526 5530 5530 5530 5533 5534 5536 5539 5541 5541 5543 5544 5547 5549 5547
5548 5545 5541 5530 5543 5531 5522 5542 5537 5531 5532 5522 5521 5521 5517 5514 5514 5513 5512 5510 5509 5508 5506 5506 5502 5502 5502 5501 5500 5502 5503 5505 5508 5508 5510 5511 5514 5515 5517 5519 5520 5523 5524 5525
5527 5530 5521 5510 5517 5502 5517 5521 5514 5509 5504 5503 5499 5495 5493 5493 5492 5488 5489 5487 5487 5486 5484 5483 5479 5477 5477 5475 5476 5480 5480 5481 5483 5483 5485 5486 5489 5492 5494 5496 5498 5499 5500 5501
5509 5507 5498 5493 5494 5488 5498 5497 5492 5485 5482 5479 5474 5471 5468 5466 5467 5469 5462 5461 5460 5461 5460 5458 5453 5451 5451 5450 5452 5455 5455 5456 5457 5460 5461 5463 5464 5467 5469 5471 5475 5476 5476 5477
5493 5487 5481 5476 5472 5466 5474 5476 5473 5466 5459 5463 5452 5449 5445 5440 5439 5448 5438 5436 5434 5430 5428 5428 5427 5426 5422 5423 5423 5427 5426 5427 5428 5431 5434 5433 5433 5438 5442 5445 5446 5446 5449 5451
5473 5465 5460 5459 5450 5449 5452 5455 5451 5444 5443 5434 5429 5425 5419 5415 5412 5412 5415 5410 5407 5406 5403 5400 5398 5398 5396 5394 5392 5393 5396 5395 5398 5401 5403 5404 5405 5410 5415 5421 5421 5421 5422 5425
5449 5448 5449 5440 5434 5430 5434 5433 5431 5423 5415 5414 5409 5403 5397 5394 5392 5387 5385 5384 5379 5375 5374 5370 5368 5370 5370 5366 5361 5360 5361 5361 5365 5368 5371 5374 5379 5381 5387 5391 5394 5396 5399 5403
5428 5434 5423 5420 5418 5420 5419 5411 5408 5399 5393 5397 5389 5388 5378 5373 5370 5366 5361 5360 5355 5348 5343 5339 5335 5338 5342 5337 5331 5332 5333 5328 5330 5335 5342 5347 5350 5355 5359 5363 5367 5372 5376 5380
5416 5411 5404 5404 5412 5400 5395 5392 5387 5383 5378 5378 5373 5365 5359 5351 5347 5341 5336 5333 5328 5324 5317 5311 5308 5308 5310 5305 5304 5298 5300 5298 5301 5304 5309 5316 5319 5324 5329 5332 5341 5346 5352 5358
5402 5398 5395 5386 5390 5378 5377 5375 5367 5363 5362 5357 5352 5346 5338 5330 5326 5317 5315 5310 5304 5299 5294 5286 5281 5277 5278 5275 5274 5269 5266 5263 5267 5271 5277 5282 5286 5292 5299 5308 5316 5322 5329 5335
5386 5382 5372 5368 5371 5360 5357 5361 5352 5347 5343 5337 5332 5328 5321 5313 5306 5298 5294 5288 5280 5274 5268 5261 5255 5247 5246 5243 5242 5239 5236 5231 5231 5236 5243 5248 5255 5262 5269 5279 5287 5296 5304 5309
Wind_Speed
51 54 51 43 46 49 50 52 52 48 45 52 49 50 47 39 38 31 33 36 36 36 36 36 40 42 45 46 41 38 37 37 38 38 37 38 36 36 39 41 40 41 40 40
51 55 47 50 49 50 50 52 52 53 51 53 54 53 49 43 35 36 30 25 29 28 29 31 36 38 41 45 43 39 39 41 42 43 41 39 39 39 39 40 40 40 40 39
52 54 47 49 51 49 50 52 51 55 55 55 55 54 52 40 38 30 35 37 31 35 36 35 39 42 44 45 46 45 44 45 45 46 45 45 43 42 42 39 41 43 43 42
50 46 46 47 47 43 51 45 49 51 55 55 54 55 52 45 38 37 33 36 29 26 25 29 30 33 38 41 41 46 47 47 47 49 50 48 47 47 46 45 47 46 45 44
43 42 43 49 44 49 55 52 49 50 54 58 57 58 54 53 54 47 42 41 42 43 41 40 40 44 41 44 46 44 45 46 45 47 49 51 51 50 49 51 52 50 49 47
50 54 53 51 50 50 52 55 55 53 53 60 58 56 58 56 56 56 57 56 55 57 58 56 51 44 45 47 48 49 50 48 48 47 45 46 49 50 51 51 53 53 52 49
57 56 56 57 56 52 48 52 58 62 61 58 60 61 61 61 59 61 60 61 65 65 64 62 60 58 57 52 51 54 55 56 50 49 51 47 48 49 53 55 53 52 54 51
64 62 60 57 56 57 58 60 63 64 65 65 64 67 61 60 60 61 64 65 68 66 63 65 62 62 64 64 62 58 61 60 57 52 51 52 50 50 53 51 49 49 48 49
69 71 70 66 63 63 64 63 59 63 62 67 69 70 68 62 62 64 65 64 62 61 66 70 68 64 60 62 57 42 45 54 61 55 53 52 56 49 45 47 49 50 53 48
68 72 72 71 68 70 68 68 66 67 67 73 76 76 74 65 64 68 68 65 63 60 59 61 64 65 65 63 52 57 55 48 50 55 57 58 53 48 46 48 51 51 53 53
68 70 72 75 75 72 71 73 72 65 60 62 71 79 68 68 66 66 64 65 68 65 63 61 52 59 62 62 60 56 58 55 54 58 63 63 62 59 56 55 58 62 64 67
64 68 69 69 66 67 72 71 68 63 70 75 76 75 68 67 68 65 64 65 66 68 67 59 62 62 59 60 53 56 56 55 58 61 65 63 63 60 65 68 67 65 68 70
65 69 68 66 63 67 73 70 71 74 71 73 74 73 58 60 65 76 75 76 75 75 77 75 71 67 60 60 54 53 57 61 62 62 68 69 71 70 70 70 72 74 73 70
65 60 61 69 73 71 76 74 71 70 74 74 75 78 76 76 76 72 73 73 74 76 78 80 80 86 74 68 59 59 62 64 64 67 65 61 67 75 79 80 78 75 78 78
64 68 68 68 70 71 71 71 69 70 74 78 78 77 72 70 67 65 67 68 67 71 73 76 79 83 88 89 85 81 77 77 78 81 83 78 72 70 70 72 78 76 70 79
66 67 69 71 68 69 72 70 67 65 66 76 78 78 76 77 80 77 73 72 64 68 77 77 78 84 95 97 96 93 89 82 80 88 93 89 78 80 76 73 74 79 74 68
68 68 69 74 68 71 77 69 69 74 75 78 84 81 79 79 77 76 79 85 78 78 73 81 81 76 81 82 84 92 91 82 79 82 88 89 82 78 76 79 80 82 79 79
72 70 73 77 74 81 77 73 76 77 78 78 79 82 83 82 81 78 76 80 83 87 84 84 76 73 80 89 89 87 79 80 87 86 79 79 78 84 83 82 85 86 85 82
73 73 77 79 79 83 78 76 77 80 82 83 83 84 85 83 82 79 81 81 82 83 85 85 70 74 75 77 77 81 86 89 87 78 87 83 79 78 77 78 84 91 93 89
74 75 77 79 81 83 81 80 81 83 85 82 83 83 84 86 86 82 84 85 86 87 89 91 97 104 103 100 100 90 86 86 87 91 91 90 84 90 86 89 92 76 89 99
74 74 74 75 78 80 78 76 75 76 76 78 79 80 81 83 85 86 85 85 85 85 87 90 93 96 99 101 102 100 104 106 98 94 93 89 88 92 91 89 80 71 72 76
69 70 70 71 72 75 71 70 70 71 73 74 76 78 81 84 85 85 86 85 86 86 85 86 87 86 88 91 94 95 91 91 97 96 94 102 93 79 83 79 79 71 69 70
62 59 62 64 65 63 62 64 65 68 72 73 77 78 80 82 83 84 85 84 85 87 88 89 90 87 84 87 91 92 93 93 89 91 90 91 87 84 78 73 69 69 66 68
54 55 60 59 57 61 62 63 65 67 71 72 74 76 77 79 80 81 82 82 83 84 86 87 87 87 86 88 88 90 94 100 97 98 93 88 78 75 72 66 69 67 66 70
53 54 55 59 58 60 61 63 65 66 67 67 69 70 71 72 73 73 76 76 77 79 79 80 81 81 81 82 84 86 90 94 97 103 102 101 98 94 88 81 79 72 74 77
48 50 55 58 57 58 62 62 60 59 59 61 62 62 63 67 71 73 74 74 75 77 76 76 76 78 76 76 77 78 80 85 90 94 98 104 113 112 111 100 96 88 82 77
Wind_Direction
277 276 278 284 276 278 280 280 283 286 286 281 278 281 284 285 289 290 290 287 287 280 279 275 269 267 267 267 268 273 272 271 269 269 266 264 267 268 268 269 270 269 268 265
278 275 280 276 276 275 279 283 283 284 283 282 287 284 283 289 292 294 287 287 289 284 278 275 271 268 266 264 267 267 267 268 266 267 265 266 267 270 272 271 270 269 270 266
271 273 273 275 276 277 279 278 282 280 284 283 285 282 284 289 291 286 290 290 287 282 280 274 273 272 270 268 266 267 262 264 267 264 264 264 265 269 270 269 266 267 267 264
268 269 271 273 276 279 274 280 277 281 281 280 279 277 282 289 288 282 282 285 283 283 287 286 284 277 278 279 278 277 271 266 264 266 265 263 262 265 268 265 263 264 266 268
271 268 266 267 274 274 276 275 277 277 277 276 274 282 283 287 290 287 289 292 292 291 286 277 275 277 279 284 282 276 274 272 264 261 264 269 267 264 265 265 263 262 263 263
269 266 266 264 268 274 272 272 273 274 275 271 278 282 275 279 282 285 291 297 293 294 289 290 287 276 274 275 273 275 276 276 274 270 264 264 267 266 262 261 262 264 265 267
268 266 264 263 265 272 273 271 272 273 273 275 280 275 268 276 285 288 293 294 294 292 291 291 288 286 285 278 274 275 272 273 272 268 266 263 261 263 266 269 266 263 264 263
269 265 267 269 274 274 275 274 271 275 277 274 272 266 267 276 281 288 292 291 290 290 294 290 286 284 285 283 280 275 274 273 273 271 271 268 261 259 260 263 267 266 258 260
273 268 271 272 275 275 275 274 276 276 274 272 272 273 268 274 279 285 285 287 291 293 289 285 283 283 284 281 280 265 268 269 266 263 262 261 261 257 258 259 261 263 263 258
275 275 272 272 273 272 274 276 276 275 276 276 275 274 276 275 280 280 281 282 276 276 274 276 279 277 277 275 266 265 259 246 248 249 249 252 252 253 257 260 259 254 252 254
282 282 276 276 274 278 277 275 277 279 272 270 275 278 277 276 274 275 275 273 271 267 270 269 274 274 276 275 271 261 267 264 249 245 243 245 248 250 258 264 264 260 261 262
279 278 277 278 279 276 276 276 278 270 272 273 278 279 285 281 279 277 274 272 268 267 264 265 268 274 276 273 266 266 256 252 248 249 242 245 247 250 251 258 262 264 265 266
275 273 277 277 275 275 274 275 276 277 277 275 275 275 269 264 267 272 271 271 269 268 269 268 262 263 260 256 253 261 263 252 242 242 241 243 247 252 255 257 262 263 261 264
271 268 267 272 273 272 270 271 272 270 271 272 268 273 272 274 275 270 268 271 271 269 268 269 267 262 258 248 250 247 247 248 251 248 248 250 259 259 261 261 264 263 265 262
268 269 269 269 269 271 272 270 268 269 270 272 276 274 274 275 273 273 277 270 266 267 263 263 263 261 259 260 252 250 253 258 257 255 258 262 261 255 259 260 262 261 263 261
271 271 271 270 271 272 270 269 272 265 267 276 273 270 273 276 276 278 271 262 264 268 262 264 265 264 263 261 259 260 263 268 269 262 260 262 256 253 251 253 258 262 264 265
271 272 274 273 273 271 268 275 272 268 270 268 270 274 278 278 278 277 269 267 267 269 274 273 261 258 260 262 264 263 264 265 266 263 259 258 255 255 256 258 254 259 263 257
269 270 270 272 271 270 277 275 273 273 274 275 276 277 278 278 277 277 273 270 271 273 272 268 254 255 259 263 263 262 261 264 264 264 261 252 252 255 256 256 258 260 259 260
267 268 270 270 271 273 273 276 277 277 279 280 281 281 281 281 280 279 278 276 272 267 262 259 252 255 258 266 263 261 263 262 257 259 262 250 252 253 260 265 268 260 256 255
267 268 269 271 272 273 273 273 274 276 276 278 277 277 277 278 278 279 278 276 276 275 274 268 263 263 266 265 265 263 261 256 258 260 258 259 260 261 263 270 272 263 259 260
269 271 272 273 274 275 276 276 277 277 278 277 278 280 280 280 281 282 280 279 278 276 273 271 270 269 269 269 267 264 260 259 260 262 255 254 261 263 267 262 258 263 270 269
270 271 273 273 273 276 277 280 280 279 277 279 279 280 280 282 283 283 283 283 283 282 280 278 276 274 272 272 271 269 269 266 264 266 264 262 263 260 258 256 261 267 272 268
274 276 273 272 276 278 280 279 276 277 278 278 279 282 282 282 283 283 283 283 282 281 280 279 278 276 273 271 269 269 265 263 262 262 259 257 254 250 250 258 258 261 269 266
275 273 275 278 279 280 279 277 278 277 279 281 282 283 283 284 284 285 284 284 283 282 282 282 281 279 276 274 270 268 264 258 257 255 254 251 245 242 247 254 253 257 262 261
278 279 282 278 279 279 278 280 282 283 284 285 284 285 285 286 287 287 287 287 287 286 286 286 285 283 280 277 274 273 270 265 261 257 254 256 253 254 256 256 261 262 263 260
285 284 280 282 281 283 283 282 285 285 286 286 288 288 288 289 289 291 292 292 292 291 290 289 287 285 282 278 275 272 270 269 267 261 258 256 255 258 260 256 265 263 262 259